Theta_e
310 300 296 296 299 301 303 304 303 304 302 302 302 302 300 300 301 304 305 306 307 305 304 305 305 305 306 308 309 311 312 310 309 309 309 310 311 312 312 312 313 313 312 316 318 319 319 318 320 323 325 327 329 329 329 329 329 329 329 329 327 328 328 328 328 328 328 326 325 326 326 325 327 327 328 328 328 328 328 328 328 328 327 328 327 327
307 298 298 301 303 303 304 305 305 304 304 300 299 299 298 300 297 302 304 306 307 303 302 305 304 304 306 308 309 310 310 309 309 309 309 310 311 312 313 313 314 315 317 318 317 318 318 318 318 320 322 324 323 326 328 328 329 329 329 328 329 329 328 327 328 328 328 328 327 326 326 327 327 327 326 326 327 327 328 328 328 328 328 328 327 327
297 294 299 304 306 306 305 305 305 304 302 302 299 299 297 298 301 303 304 306 306 304 300 303 300 302 304 306 308 308 308 309 311 311 311 311 312 312 313 314 314 315 316 317 318 319 319 319 319 317 318 321 323 324 327 328 329 329 329 329 329 329 328 328 328 328 327 329 329 329 329 328 328 330 330 330 329 329 328 328 328 328 328 328 327 327
292 297 301 306 306 304 303 304 303 303 303 301 300 298 295 300 298 294 301 304 305 302 300 303 301 302 305 307 307 309 309 310 312 313 313 314 313 313 314 315 315 315 316 316 317 318 319 320 320 319 318 318 321 323 325 326 327 328 328 329 329 329 329 329 328 326 329 329 330 331 331 331 330 329 330 329 329 329 328 327 328 328 328 328 327 327
295 300 305 305 305 303 300 302 301 300 298 301 302 300 298 300 300 298 300 303 305 305 305 302 300 301 304 304 306 310 312 311 312 313 313 314 315 316 317 317 317 316 316 317 318 319 319 320 320 321 320 320 319 321 322 324 326 326 328 329 330 330 329 329 328 327 328 328 328 329 329 330 329 328 328 327 326 327 327 327 327 327 328 327 327 327
298 303 306 303 302 303 301 299 300 300 297 299 302 302 301 302 301 302 303 302 300 299 303 301 294 294 302 304 305 308 310 309 312 311 311 313 314 314 314 314 316 318 318 318 318 319 320 321 321 322 323 322 321 319 320 323 325 326 327 329 330 330 330 329 329 328 327 326 326 325 324 323 323 322 323 322 323 325 325 325 328 328 329 328 327 327
300 305 303 301 301 300 300 299 301 302 297 295 297 304 304 303 302 303 302 301 294 291 301 305 293 289 300 301 305 307 308 308 311 311 311 313 313 314 314 315 315 316 317 318 319 319 319 320 321 322 323 323 322 321 321 322 323 325 327 328 329 330 329 330 330 329 326 326 325 325 324 325 324 322 324 326 327 327 328 329 328 328 329 329 328 327
302 303 302 301 300 299 298 296 301 301 297 293 304 304 304 302 301 302 302 300 298 304 304 302 301 293 292 298 304 306 305 307 308 310 311 312 313 314 315 316 316 317 317 318 319 319 320 321 321 321 322 323 323 323 322 321 321 322 324 327 328 329 329 330 330 329 327 325 325 325 325 324 324 324 325 326 327 328 329 328 328 329 328 329 328 327
301 300 301 299 299 298 296 298 302 303 298 299 302 304 302 302 302 303 301 300 300 298 293 298 302 293 291 298 304 305 302 303 305 307 310 312 313 314 315 316 317 318 318 319 319 320 321 321 321 322 322 323 323 324 323 321 320 321 323 325 327 327 328 328 330 328 328 326 326 326 325 324 324 326 326 327 328 327 328 327 328 328 328 328 328 327
303 303 303 303 300 296 300 301 303 303 297 303 306 305 304 304 303 303 301 299 298 294 288 293 298 290 290 297 299 304 302 302 304 307 309 311 312 313 314 315 317 318 319 319 319 320 320 321 322 323 323 322 322 324 325 323 322 321 322 323 324 325 327 328 329 328 328 327 325 325 325 324 325 325 325 326 326 326 326 325 326 327 327 327 327 327
302 304 306 303 300 301 302 302 303 303 302 306 306 302 301 301 300 302 301 298 294 287 289 294 297 295 286 295 297 298 301 304 305 307 309 311 312 313 315 315 316 316 317 318 319 319 319 320 320 321 320 321 322 324 324 322 321 321 320 321 321 323 325 327 328 328 327 327 326 325 325 325 325 325 325 324 324 324 325 324 324 325 326 327 327 327
301 301 300 302 306 303 304 299 303 304 302 302 299 299 298 295 298 296 294 297 286 283 291 295 296 297 286 292 298 303 304 306 306 305 307 309 311 312 314 315 315 316 316 317 317 317 318 318 319 319 318 319 319 321 321 322 322 320 320 320 320 321 323 325 327 327 327 327 326 325 325 325 325 325 324 323 323 324 324 324 323 325 325 325 326 326
296 297 302 302 305 303 300 299 300 301 301 299 298 297 289 286 288 283 288 284 284 283 291 295 296 293 291 295 300 303 304 305 307 308 308 309 310 312 313 314 315 315 315 315 316 316 317 317 317 317 317 318 318 319 319 319 320 319 319 318 318 319 322 324 326 326 327 326 326 326 325 325 325 325 325 325 324 325 324 324 324 324 323 324 324 324
291 299 300 300 301 303 302 294 292 292 297 297 294 293 287 283 282 279 283 286 286 290 294 293 297 289 294 297 301 301 304 307 307 309 311 311 311 312 313 314 313 314 314 314 315 316 316 317 317 317 317 317 318 318 318 318 318 318 318 318 317 318 321 323 324 325 326 326 326 326 326 325 325 325 325 325 324 325 325 325 324 324 324 324 324 324
285 285 292 296 292 302 301 299 298 296 296 296 300 296 290 287 284 279 282 280 282 286 291 295 288 285 288 292 302 303 305 306 309 310 310 308 308 310 311 312 312 312 312 314 314 315 316 316 316 317 317 318 318 317 317 317 317 317 317 317 316 317 319 321 322 324 325 325 326 326 326 326 326 325 325 325 325 325 325 325 325 325 325 324 325 325
288 289 299 302 302 302 298 302 303 300 297 298 299 299 292 287 295 285 288 286 286 286 286 288 288 295 292 300 300 303 304 304 305 307 307 308 309 311 310 311 312 312 313 313 313 314 314 315 316 316 317 317 317 316 316 316 317 317 316 316 316 317 317 319 320 322 324 325 326 326 326 326 325 325 325 325 325 325 326 326 325 325 325 325 325 326
290 287 299 301 304 300 300 302 301 302 286 294 296 289 293 299 295 289 287 288 290 288 285 292 291 295 299 300 302 302 302 302 303 304 305 307 309 310 310 311 312 313 314 315 316 316 315 315 316 315 314 314 314 315 315 316 318 317 316 315 315 316 317 318 319 320 322 324 325 326 326 326 325 325 324 324 325 325 325 326 326 325 325 326 326 326
288 290 300 298 296 301 304 303 303 303 302 298 289 294 299 300 298 290 282 286 284 281 283 291 287 289 290 287 300 300 299 301 302 303 303 305 307 306 308 310 311 312 313 314 315 316 316 316 314 313 313 313 314 315 316 317 317 317 316 315 315 315 315 316 317 319 320 322 323 325 325 326 326 325 325 325 325 325 325 325 325 325 325 325 326 326
295 287 293 298 299 301 304 302 299 302 303 298 295 303 292 286 284 288 285 278 277 279 281 286 288 289 291 291 295 296 298 299 300 303 302 303 304 306 309 311 312 313 314 314 313 315 315 314 314 315 315 315 314 313 313 313 313 313 313 313 313 313 314 316 318 318 320 321 323 325 325 326 326 326 326 326 326 325 325 324 325 325 325 326 326 325
295 286 290 298 298 300 300 298 287 293 300 299 301 298 299 294 289 286 286 286 286 280 282 282 287 284 295 294 296 296 298 299 300 301 302 303 305 306 309 312 314 315 314 314 315 313 312 312 312 312 310 310 311 311 311 311 311 310 311 311 312 312 312 313 314 316 317 320 321 323 324 325 326 326 326 326 325 325 324 325 325 325 325 325 325 325
289 294 284 293 299 298 289 294 291 294 291 293 294 292 294 292 296 297 294 287 284 282 282 282 282 287 295 299 298 298 298 300 301 301 303 303 305 306 308 311 313 313 314 314 311 309 310 309 309 310 310 310 309 309 308 309 310 311 311 310 311 311 311 312 312 313 315 317 320 320 322 323 324 325 326 325 326 325 325 325 324 325 326 326 325 325
290 290 285 289 289 289 292 298 295 296 297 294 294 291 293 290 287 284 282 293 289 286 282 283 281 289 296 299 300 299 301 301 301 302 304 305 305 306 307 308 308 308 308 307 307 307 308 309 309 309 311 312 310 310 309 310 308 307 308 309 309 310 310 310 311 312 313 315 317 319 320 321 323 325 325 325 325 325 325 325 325 325 325 325 325 325
297 292 289 286 288 289 294 292 294 293 293 293 295 294 297 295 294 288 282 285 289 289 289 288 285 287 296 295 297 299 298 298 299 300 301 302 301 301 303 304 305 306 306 306 305 306 306 306 306 305 305 306 307 308 308 308 307 307 307 307 307 307 308 310 310 311 312 313 315 316 319 321 322 323 324 324 325 325 325 325 326 326 325 324 325 325
294 288 285 286 291 293 292 290 290 292 293 291 293 295 296 293 294 291 290 292 287 288 286 286 284 289 297 294 294 295 296 298 298 298 299 301 301 302 302 303 303 303 303 304 305 304 304 303 304 305 306 307 308 308 307 307 306 306 306 306 306 306 306 308 308 309 309 311 312 314 316 318 320 321 322 322 324 324 325 325 326 325 325 325 325 324
287 288 287 283 283 285 288 290 289 289 290 286 288 294 296 297 297 295 295 289 287 288 288 286 281 288 297 295 296 296 298 298 298 298 299 300 301 301 301 302 302 302 302 303 304 304 303 303 303 304 304 304 305 306 306 306 305 305 305 305 305 305 306 305 306 307 308 309 310 312 314 316 318 319 320 321 322 323 324 324 325 325 325 325 324 325
290 288 286 280 277 275 275 277 280 283 285 288 288 290 293 294 294 292 287 288 284 288 289 287 287 295 295 298 297 297 299 299 300 300 300 301 300 301 302 302 302 302 302 302 303 304 304 303 302 302 303 304 304 304 304 305 305 304 304 305 304 304 304 304 304 304 306 307 308 309 311 313 315 316 317 319 320 321 322 323 323 324 324 324 324 324
289 290 289 286 284 282 284 287 288 291 288 285 284 288 290 292 295 295 293 288 285 289 288 290 292 294 293 296 297 298 296 299 299 301 300 301 302 303 303 302 301 302 302 302 302 303 303 304 303 304 303 304 303 302 302 302 303 303 303 304 304 302 302 302 302 302 303 305 306 307 309 310 311 313 314 316 317 318 319 320 321 321 322 323 323 322
287 286 287 287 287 287 290 288 289 291 287 287 287 286 290 291 290 288 287 286 292 289 285 293 295 293 295 297 296 298 298 298 299 300 300 302 302 302 302 301 299 302 304 304 304 304 303 303 303 303 304 302 302 302 303 302 302 302 302 302 303 302 302 303 301 301 301 302 304 305 307 308 310 310 311 312 313 313 314 315 317 318 319 319 320 320
287 284 287 287 286 289 290 289 291 289 289 289 287 287 286 288 288 286 285 287 286 287 286 289 290 292 295 297 295 296 297 297 298 299 301 301 301 302 302 302 302 303 304 304 305 304 303 302 302 303 304 303 301 302 303 304 304 304 303 304 304 302 302 301 300 301 301 302 302 304 306 306 306 307 307 307 309 309 310 312 313 314 315 316 317 318
289 286 287 287 286 287 288 289 289 287 287 287 287 288 289 287 286 287 286 286 286 284 286 287 289 289 293 294 296 297 298 298 299 300 301 300 301 301 301 301 302 302 303 304 304 304 304 303 302 302 302 303 303 304 304 304 305 304 303 303 304 304 302 300 301 301 302 302 304 304 304 303 303 303 304 304 305 307 308 309 310 311 312 313 314 315
290 285 289 285 285 285 287 290 289 287 286 286 287 288 288 288 288 288 288 287 286 285 286 286 286 287 293 296 296 298 299 300 300 298 299 300 300 300 301 300 300 301 303 303 304 303 304 304 303 302 302 303 303 303 303 304 304 303 304 304 304 304 301 300 301 301 301 302 303 303 303 302 303 303 302 302 302 303 304 305 307 308 309 310 312 313
289 285 287 286 283 283 287 286 286 286 286 285 285 286 286 286 284 286 285 288 287 285 287 286 284 285 292 297 298 298 299 298 297 298 299 299 300 299 299 300 300 301 302 302 303 303 303 303 303 302 302 302 303 303 303 303 303 303 303 303 303 302 301 301 301 301 301 302 301 301 301 301 301 301 301 301 301 301 302 302 302 303 305 306 307 309
287 287 284 284 282 282 286 287 285 284 283 280 282 285 288 288 290 291 291 292 290 291 287 284 285 291 294 296 294 295 298 298 298 298 299 300 301 300 300 300 300 301 302 302 302 302 303 303 303 302 302 302 303 303 302 302 301 302 302 301 301 300 302 302 302 301 301 301 301 301 301 301 300 300 300 301 301 301 300 300 301 301 302 303 305 307
289 287 285 287 281 282 284 283 285 281 275 276 291 292 290 288 289 287 287 290 291 291 289 291 291 294 294 294 294 295 297 297 298 300 301 300 299 299 299 300 300 301 301 302 302 302 303 303 303 303 302 302 302 302 301 302 301 301 301 300 300 300 301 301 302 302 302 301 301 301 301 300 300 300 300 300 300 300 299 299 299 300 301 302 302 303
287 286 285 287 283 281 282 283 280 274 276 292 286 288 292 293 292 291 291 291 292 293 292 292 294 295 296 296 296 298 298 296 296 297 298 299 300 299 299 299 299 299 300 301 303 303 302 301 301 301 301 300 299 299 300 300 300 300 300 300 300 300 299 300 300 301 301 301 302 302 301 301 301 300 300 300 300 300 299 298 299 299 300 300 300 301
286 286 286 284 285 285 282 280 273 274 286 286 289 291 290 291 292 291 289 292 292 292 293 291 293 295 296 297 298 299 297 295 295 297 299 300 301 300 299 299 299 300 301 302 302 300 299 299 299 299 299 299 299 299 299 298 299 298 299 299 299 299 299 299 299 299 300 300 301 301 301 301 301 300 300 300 299 298 298 298 298 298 299 299 299 299
291 288 286 282 285 278 279 280 278 286 284 285 287 288 289 288 288 287 283 288 292 293 293 293 294 295 296 297 298 298 294 294 293 296 299 299 299 298 298 299 300 301 301 300 300 299 299 299 298 298 298 298 298 298 298 297 297 297 298 298 299 298 298 298 298 299 299 298 299 299 300 300 300 300 299 299 298 298 298 298 298 298 298 297 297 297
291 286 287 283 281 284 280 277 278 278 275 281 290 291 295 295 295 294 290 287 295 295 296 294 293 295 296 297 297 294 293 292 289 292 293 294 297 299 298 299 299 298 298 298 298 298 298 298 297 297 297 297 297 298 297 296 296 297 297 297 297 297 297 297 296 297 297 298 298 298 298 299 299 299 299 299 298 298 298 298 298 298 298 297 297 297
288 289 288 284 282 282 279 276 276 275 279 287 288 290 293 294 295 295 289 283 293 295 296 296 295 296 296 296 295 294 292 288 290 294 294 294 295 296 295 295 295 295 296 296 295 296 296 296 295 295 296 297 296 297 296 296 296 297 296 296 296 296 296 295 295 296 296 297 297 297 297 298 298 298 298 297 297 298 297 297 297 296 297 297 298 298
284 285 284 282 280 280 279 278 276 280 281 284 287 289 290 294 296 291 278 278 290 294 297 296 295 296 297 296 295 294 291 288 291 294 294 295 295 295 294 293 294 294 295 295 296 295 295 295 295 295 295 295 296 296 296 295 296 295 295 295 295 295 294 295 295 296 296 297 297 297 297 297 296 296 296 296 296 296 296 295 294 296 295 296 297 297
281 280 283 279 280 280 280 278 279 281 286 287 287 287 290 295 293 281 275 285 288 289 293 296 296 296 296 295 295 293 295 295 295 294 294 293 293 293 293 293 293 294 294 294 294 292 294 294 294 294 294 295 296 295 295 295 295 294 294 294 294 293 294 295 296 296 296 296 296 296 296 296 296 295 295 295 295 294 293 293 294 294 293 293 293 295
280 281 281 283 280 279 279 278 278 281 287 289 287 289 293 290 279 279 288 289 291 291 293 294 292 292 293 293 295 295 294 293 294 294 292 292 292 291 291 292 293 293 294 293 291 292 293 294 293 293 293 294 295 294 294 294 293 293 294 293 293 293 295 295 295 295 295 295 295 295 294 294 291 291 291 291 291 290 292 293 292 292 293 292 294 291
281 279 278 278 281 278 276 275 275 273 284 290 288 287 290 285 285 289 288 288 290 290 290 290 291 290 290 288 291 291 292 292 292 291 291 291 291 291 292 291 291 292 292 292 292 292 292 292 292 292 293 294 294 294 293 291 290 292 292 292 293 294 295 294 294 294 294 293 292 291 290 291 290 290 291 290 290 290 290 291 290 290 291 290 291 291
287 279 279 280 283 276 276 274 276 284 286 290 290 284 289 289 290 289 290 287 290 290 289 289 290 290 290 289 289 289 289 290 290 290 290 290 291 291 292 291 291 292 292 292 292 292 291 291 292 291 291 292 293 292 292 292 291 291 290 292 294 294 293 293 293 292 291 289 290 290 290 289 289 290 290 290 290 290 289 290 290 290 291 291 291 292
285 284 286 281 286 282 280 283 286 285 288 289 288 288 289 289 290 290 291 290 288 289 290 289 288 290 290 290 288 289 288 289 289 290 289 289 289 290 290 290 290 291 291 291 290 290 289 290 290 290 290 291 290 291 291 290 289 288 288 292 293 293 292 291 289 289 288 289 289 289 290 290 290 290 289 289 290 290 291 290 289 291 290 290 291 291
282 284 285 286 285 286 286 288 289 287 286 287 289 290 289 287 288 289 289 288 289 289 290 288 290 290 289 289 288 287 287 288 289 288 288 288 288 289 289 290 290 290 290 289 289 289 289 289 288 288 288 289 290 290 290 290 290 288 290 292 292 292 291 289 288 288 288 288 289 289 289 289 289 290 290 289 290 290 291 290 290 291 292 292 292 292
281 281 282 282 284 284 279 289 287 287 287 289 289 287 288 288 288 288 287 288 288 290 290 290 290 290 289 289 287 287 287 288 287 288 287 288 287 287 287 288 288 288 288 288 289 288 288 287 288 287 287 287 289 290 289 289 289 290 291 291 291 290 289 288 287 287 288 289 290 290 289 289 291 292 291 290 292 292 291 292 292 290 291 291 292 291
279 283 283 282 282 282 283 284 284 285 286 288 289 288 289 290 289 287 288 288 288 290 290 290 289 288 289 287 288 287 287 287 286 286 287 287 287 287 287 287 287 287 287 288 288 287 286 287 286 287 287 287 289 289 289 289 289 290 289 289 289 288 288 287 287 288 289 289 289 290 291 291 289 289 292 292 291 292 292 292 291 291 291 292 292 292
283 285 279 282 281 283 284 284 284 283 284 284 286 288 289 289 288 287 287 287 287 287 287 286 287 287 287 287 287 287 286 286 286 286 285 286 286 286 286 287 287 286 286 286 286 286 287 286 286 286 286 287 289 288 288 288 288 289 288 288 288 288 287 288 288 288 288 289 290 291 290 291 290 291 291 291 291 292 292 292 291 291 292 292 293 292
281 279 282 281 278 278 280 284 286 280 282 285 284 286 286 287 287 288 286 285 285 286 286 285 285 285 286 286 287 286 285 286 286 286 285 285 286 286 286 286 286 286 285 286 286 285 285 285 285 285 286 287 288 288 287 287 288 289 289 288 288 287 287 287 288 288 289 290 291 291 291 291 292 291 291 291 291 291 291 289 289 290 292 292 290 289
281 282 281 279 279 279 284 286 286 287 286 285 286 286 286 286 287 286 286 287 286 286 286 285 284 284 284 284 285 285 285 286 286 286 285 285 285 286 286 285 285 285 285 285 285 285 285 285 285 285 285 286 287 287 287 287 288 288 289 289 288 288 287 287 288 289 290 290 291 291 290 290 290 291 291 290 290 290 290 291 291 289 288 288 288 289
Wind_Speed
11 12 14 16 17 20 20 21 19 11 7 10 11 11 12 9 9 9 11 4 4 7 14 14 15 17 16 15 16 16 15 13 14 15 13 13 13 13 12 13 12 12 13 11 9 11 11 11 9 10 9 10 11 12 13 13 14 14 13 12 15 13 13 12 12 12 13 13 14 14 16 16 14 14 15 14 14 14 14 15 15 15 14 15 15 15
11 14 18 15 15 19 19 20 18 15 9 11 10 12 12 12 13 9 10 5 4 8 12 12 15 18 17 17 18 18 18 20 18 16 16 17 17 15 16 17 16 15 8 8 10 11 11 10 11 10 9 11 12 13 13 15 15 14 15 15 13 10 13 14 14 12 13 13 13 13 14 13 12 13 14 14 15 15 14 15 15 15 15 16 16 15
11 18 20 21 14 15 16 17 19 19 14 14 12 10 10 11 9 5 7 8 6 7 14 15 17 17 18 18 19 19 20 20 18 19 18 17 17 16 15 16 16 12 14 13 14 12 11 12 12 10 11 12 14 13 13 14 13 13 13 14 13 12 13 14 14 12 13 13 13 12 10 11 10 11 11 11 11 13 14 15 16 15 16 17 16 16
14 17 19 13 17 20 19 19 19 17 15 13 12 11 13 7 8 9 9 9 8 8 6 7 14 15 17 19 21 20 19 20 19 18 18 17 19 20 19 17 15 15 14 16 16 15 14 13 12 11 11 12 11 11 11 11 13 12 13 13 13 13 13 13 14 14 13 13 12 11 9 9 10 8 10 12 11 14 15 16 16 16 17 17 17 17
16 11 14 14 18 20 21 21 19 17 16 16 15 13 12 11 11 11 4 8 4 11 6 11 15 16 15 16 16 16 19 21 20 17 18 18 17 18 17 17 17 19 17 15 16 16 15 15 14 14 13 11 10 11 11 11 11 9 14 14 14 13 14 13 13 15 13 10 10 9 9 9 8 11 8 10 13 15 15 15 17 18 18 17 17 17
13 6 18 21 20 18 19 19 20 17 16 16 19 18 15 11 10 11 7 5 5 9 10 9 9 13 11 19 20 14 13 19 19 20 21 19 18 16 18 19 18 17 16 17 17 17 16 16 15 13 12 12 11 13 13 11 12 13 12 13 13 12 12 13 15 15 13 12 12 11 11 12 14 14 13 16 16 15 16 18 15 15 16 17 17 17
12 11 18 19 17 21 22 19 19 19 18 16 16 19 16 14 13 9 8 7 10 13 3 12 11 13 3 11 12 11 14 17 15 17 19 17 16 16 16 16 16 17 17 16 17 17 17 17 15 16 14 13 13 14 11 10 12 14 13 13 13 12 12 12 13 15 13 13 12 16 16 14 14 14 14 14 12 12 12 10 12 13 14 16 17 17
8 14 15 17 19 20 20 20 19 22 17 16 5 14 16 19 14 12 8 9 9 3 2 8 10 14 16 17 13 16 17 16 16 16 16 14 16 17 16 16 16 16 17 15 16 18 18 17 16 18 17 13 13 11 8 10 11 13 14 13 14 12 12 12 12 14 15 14 14 15 16 14 15 15 14 12 12 11 9 10 11 11 11 13 15 15
21 14 17 18 18 18 20 20 18 20 15 6 9 10 16 18 15 13 11 7 5 5 13 10 10 10 14 13 7 15 19 20 20 18 16 15 16 16 17 16 16 17 17 16 14 15 17 16 16 15 14 12 12 10 9 11 11 12 13 13 13 14 13 12 14 14 15 15 14 14 13 14 14 14 13 9 8 9 10 11 10 11 11 11 14 15
0 13 19 20 17 16 12 16 15 21 18 9 5 9 8 11 14 13 8 8 8 7 17 16 13 13 21 10 11 12 18 19 16 17 19 16 16 16 16 17 18 17 14 14 17 16 14 14 14 11 11 12 12 9 8 10 10 10 10 12 14 15 12 12 14 15 16 17 15 14 15 17 14 12 11 10 11 10 10 11 12 11 11 11 11 14
3 5 3 9 10 8 9 7 14 19 10 10 7 8 8 10 10 8 9 9 7 15 19 22 15 16 17 6 13 11 13 7 8 9 10 13 15 16 16 17 16 15 13 10 11 13 14 14 14 13 13 15 12 6 8 9 9 9 11 12 14 16 12 13 14 15 17 16 16 16 16 17 17 14 12 11 13 11 11 11 11 11 10 10 11 11
11 3 8 5 6 4 7 6 5 9 8 11 4 7 9 2 4 5 4 8 12 14 21 20 17 18 18 3 2 6 4 3 8 8 10 12 14 15 15 13 13 12 11 11 11 13 15 15 14 11 13 14 12 8 9 8 8 10 11 11 14 14 15 13 14 15 16 15 16 17 17 17 16 15 12 14 14 13 14 13 11 10 10 11 10 11
12 12 3 6 9 15 12 10 2 7 8 11 7 10 12 6 6 11 9 15 17 16 2 2 14 14 24 22 3 2 2 3 5 6 9 10 11 11 9 10 8 8 9 11 12 12 11 11 12 10 12 11 10 10 11 10 9 9 10 13 14 15 15 15 15 16 16 16 16 16 16 17 14 15 16 14 14 13 12 11 12 11 11 10 10 11
3 9 10 5 8 13 15 13 9 9 11 14 13 13 13 12 12 13 14 5 7 8 9 6 3 13 16 16 18 21 14 5 7 8 7 8 8 6 5 5 7 8 9 9 10 10 11 10 9 10 11 11 9 10 10 9 9 8 9 12 14 17 14 14 14 15 16 17 17 15 15 15 13 14 14 14 13 13 12 11 12 12 12 11 12 12
7 9 11 10 6 13 15 16 18 11 18 18 12 18 14 11 9 14 10 16 12 10 3 7 2 6 6 4 2 10 13 16 12 7 1 3 4 6 6 5 6 8 8 8 9 10 11 9 10 9 10 9 8 7 7 6 8 8 10 11 13 14 13 13 14 13 15 14 15 14 14 13 12 12 12 13 12 12 12 12 12 12 11 11 11 11
15 9 6 23 11 21 17 16 17 11 8 11 12 10 12 16 3 9 3 8 9 10 5 7 10 0 11 7 5 4 2 3 1 3 6 8 8 7 7 6 6 8 9 9 10 10 11 11 10 8 7 6 5 6 7 9 8 8 10 10 12 14 13 11 13 13 13 14 12 14 14 14 13 11 11 11 11 12 12 12 12 12 12 11 11 10
5 12 9 12 12 19 21 19 15 18 13 10 9 14 17 12 14 1 3 1 1 5 14 4 10 14 13 20 18 12 5 6 5 5 7 12 13 12 10 9 11 11 11 10 9 9 12 9 5 4 5 6 7 7 8 9 9 9 9 9 12 13 11 11 12 13 12 12 12 13 14 14 14 14 15 14 15 14 12 12 12 12 12 12 11 10
6 2 8 14 14 13 19 18 15 21 7 9 13 14 3 7 3 3 8 3 6 8 6 10 16 15 10 13 3 16 20 17 11 11 8 6 5 8 9 10 12 13 14 14 13 11 5 4 4 2 5 8 9 8 8 8 6 5 7 8 10 9 11 12 11 12 12 12 13 14 14 15 15 14 14 14 14 12 11 12 11 11 11 12 11 10
3 7 2 11 16 14 14 13 13 15 16 14 11 13 11 7 7 5 1 8 4 9 6 16 19 19 15 15 2 5 11 14 17 12 5 6 8 10 11 12 12 13 11 10 10 5 6 4 4 5 6 5 5 7 7 7 6 6 6 7 8 11 10 9 8 9 10 11 9 9 11 12 13 13 12 12 12 11 11 13 12 13 13 11 11 11
1 8 2 7 11 6 7 9 14 12 7 4 4 8 3 1 12 15 12 4 6 8 5 16 13 15 11 13 11 6 6 7 10 12 11 13 13 12 12 11 10 9 9 8 5 9 6 5 6 6 6 6 6 6 6 6 5 7 8 7 8 9 9 8 8 9 10 10 10 9 10 11 11 11 12 12 11 11 13 13 13 13 13 14 11 11
4 2 11 4 4 7 8 7 11 15 16 7 6 8 7 8 2 2 4 12 7 8 13 9 14 9 9 7 11 10 10 9 11 11 13 14 15 17 15 11 10 9 7 7 8 5 5 4 4 4 3 4 5 6 6 5 6 6 5 6 7 8 8 8 9 8 9 8 9 10 11 12 11 12 11 12 12 13 13 13 12 12 12 10 12 11
6 7 15 3 5 8 1 1 6 6 8 12 15 18 19 18 10 11 8 4 8 7 6 8 16 8 3 1 8 12 14 14 16 15 12 12 10 3 7 9 10 9 10 8 5 4 4 4 4 5 4 4 5 5 4 3 4 6 6 6 6 6 8 8 8 7 8 8 8 10 11 12 11 10 11 12 12 13 13 12 12 11 10 11 11 10
6 2 8 16 6 5 6 3 3 3 1 3 7 10 11 10 10 9 12 10 6 12 6 9 10 11 3 3 5 6 6 8 7 5 4 7 9 8 6 5 6 6 7 7 7 5 4 5 6 6 7 8 9 7 5 3 3 5 6 6 6 7 9 7 7 6 6 7 8 10 10 9 10 10 10 11 11 12 12 11 10 9 9 10 10 9
6 4 5 8 6 1 2 2 1 3 5 4 8 7 8 13 13 11 12 10 10 7 9 6 10 6 3 3 6 6 7 8 7 8 6 5 6 6 5 6 6 7 8 7 5 4 2 5 5 4 6 8 7 8 9 6 6 5 5 5 5 7 9 7 6 6 6 7 8 8 8 9 9 9 9 10 10 10 11 9 8 8 9 10 9 10
7 7 9 11 10 8 9 3 2 4 2 3 4 8 11 9 15 13 5 4 7 13 14 11 17 11 4 5 7 7 7 8 8 5 5 6 4 4 5 5 5 6 7 7 6 6 3 4 7 8 7 6 7 7 6 6 6 6 7 6 6 6 6 6 5 5 5 6 7 7 7 8 7 8 9 10 9 11 10 10 9 8 10 10 10 10
8 5 12 17 17 14 14 15 18 10 11 4 5 4 10 14 15 12 15 5 8 9 17 13 10 9 4 5 9 5 5 5 4 3 3 2 1 4 4 5 6 5 6 7 7 7 2 5 3 4 6 3 4 5 7 6 5 5 5 5 4 5 5 4 4 5 5 4 5 6 7 7 7 9 10 10 10 11 10 10 10 10 9 10 12 12
4 5 10 13 15 17 12 2 5 4 4 8 4 11 12 12 11 13 10 13 11 7 13 13 12 10 8 7 5 5 3 4 7 4 5 7 5 3 2 3 4 5 7 8 7 6 5 6 5 2 3 3 2 4 5 5 5 5 4 4 2 2 3 4 3 4 4 5 5 6 6 6 7 7 7 8 8 8 7 8 8 9 9 8 10 11
1 9 13 13 18 15 14 3 3 2 5 5 11 9 10 11 10 6 8 6 3 10 14 11 11 11 16 7 5 2 7 8 9 9 6 4 6 8 7 7 7 5 5 6 6 6 6 6 5 8 4 0 5 7 5 2 2 4 5 6 5 4 2 2 2 3 3 4 5 6 6 6 5 6 6 6 6 7 7 7 8 8 8 8 10 11
5 7 11 12 18 15 16 10 7 3 4 7 11 10 12 11 8 13 6 3 4 11 6 3 2 14 16 5 4 6 8 9 10 13 11 8 6 6 6 8 9 8 7 7 6 7 7 7 7 7 7 3 4 5 6 6 7 6 6 5 4 3 3 2 1 2 3 4 6 6 5 5 5 5 6 7 7 7 8 7 7 8 8 9 10 9
4 10 9 10 13 15 13 9 5 9 4 4 9 11 15 14 16 13 11 5 6 6 3 3 8 14 13 11 10 13 11 11 12 8 6 5 8 8 8 9 11 14 11 7 7 7 5 5 5 7 7 6 5 6 7 8 8 8 7 7 6 5 3 1 1 2 3 5 5 5 4 4 4 4 5 5 6 6 6 6 7 7 8 9 10 10
11 8 11 3 10 15 12 12 8 7 7 10 5 6 9 11 12 14 12 11 8 7 7 8 10 15 14 11 12 14 9 2 6 7 11 9 4 7 7 7 8 9 11 12 12 13 12 11 6 3 6 8 9 10 9 9 8 7 6 7 7 6 3 2 2 3 3 6 5 5 5 4 4 3 5 5 5 5 6 7 6 8 9 9 9 10
9 4 2 7 12 12 9 10 10 5 5 8 7 5 6 9 9 8 11 7 8 9 9 7 6 11 16 13 10 13 9 7 9 10 8 7 9 7 7 8 7 7 8 9 10 10 11 13 14 13 10 10 10 10 9 10 9 7 8 8 8 7 5 3 3 4 5 5 6 5 5 5 5 5 5 4 5 4 5 6 7 8 9 9 9 8
7 6 6 9 13 11 6 10 9 6 2 9 13 11 13 14 14 11 10 9 12 12 13 13 14 16 19 15 14 16 8 9 11 9 8 10 9 8 8 7 6 6 7 8 8 7 8 9 9 9 9 8 8 9 10 9 7 9 9 8 7 7 6 6 5 5 6 6 6 6 5 5 5 5 5 5 4 4 4 6 7 8 8 9 8 6
9 9 5 7 7 6 5 6 5 5 11 6 7 19 21 18 18 17 14 16 18 14 11 11 14 12 10 14 15 16 8 7 8 8 7 6 6 7 8 6 5 5 6 5 5 4 6 7 7 7 6 6 8 9 9 7 6 7 8 7 5 5 7 7 7 5 6 6 6 6 6 5 5 6 7 6 5 5 5 6 7 8 7 7 7 8
11 10 6 4 5 7 5 7 5 14 9 1 4 4 9 20 19 19 19 18 11 9 12 13 9 11 12 11 13 11 5 7 3 5 6 7 9 9 7 2 2 3 4 3 5 7 8 8 7 8 8 8 8 7 6 7 9 9 8 7 8 6 6 6 7 7 7 7 7 6 5 6 6 7 7 7 6 5 6 6 8 7 7 6 7 7
10 10 6 4 5 4 5 8 6 2 3 2 2 3 1 2 8 11 13 9 10 14 14 13 13 13 12 11 8 2 7 7 4 5 10 12 7 3 1 2 2 2 4 6 6 7 7 7 6 7 7 7 6 4 2 4 5 7 8 7 7 8 7 6 5 5 6 9 9 10 9 7 7 7 7 7 6 6 7 7 7 8 6 6 7 7
13 9 6 3 4 7 4 9 9 6 6 2 4 7 10 9 10 12 10 14 17 14 15 15 17 15 11 12 8 3 7 4 1 5 7 4 1 2 1 2 3 4 5 5 4 4 3 3 4 5 5 5 5 4 4 3 3 5 6 5 6 7 8 8 7 7 5 5 8 10 10 10 9 9 8 7 7 7 7 7 7 7 5 7 7 7
10 13 9 9 5 6 8 5 4 6 12 7 8 3 5 1 5 11 8 5 6 14 16 16 15 14 14 12 3 5 4 0 1 2 7 5 4 6 4 3 3 2 2 2 2 2 3 4 4 3 3 6 5 3 3 3 4 5 6 7 6 5 5 4 6 8 8 8 8 8 10 10 10 9 8 7 8 8 7 7 6 7 5 7 7 7
5 5 6 11 4 9 9 9 6 7 8 4 3 6 6 3 6 7 4 7 5 13 15 17 16 13 10 6 4 7 3 3 4 6 5 5 4 4 5 4 3 2 2 2 3 4 5 5 5 6 5 5 7 7 4 3 4 4 6 6 7 6 6 6 7 7 8 8 7 6 7 8 9 9 9 8 8 7 8 8 7 5 4 7 7 8
8 9 8 9 8 6 7 10 12 6 7 4 7 3 5 5 9 7 2 3 2 5 13 15 16 13 4 5 6 5 5 5 3 4 3 3 4 5 5 5 6 5 4 3 1 1 2 3 5 7 8 9 9 7 7 5 5 6 6 7 7 7 7 8 8 8 7 7 7 6 6 6 7 7 8 9 9 8 8 6 5 7 7 7 6 7
5 2 7 11 10 10 12 4 1 3 3 3 3 4 5 9 9 5 6 2 3 2 2 3 1 5 4 4 4 4 1 3 5 4 2 1 4 5 4 2 2 3 4 4 4 3 3 4 3 6 7 7 7 8 7 5 5 7 7 7 8 10 8 7 7 8 9 9 9 8 6 6 6 8 8 9 9 7 6 6 7 6 4 4 4 4
1 3 1 4 6 8 8 8 5 3 3 7 2 5 8 8 5 9 2 2 3 8 6 8 10 8 8 7 3 3 4 3 2 4 4 5 5 1 2 3 4 3 3 3 3 3 4 5 7 8 8 7 6 7 7 7 9 9 8 7 9 10 8 7 6 6 6 8 9 10 9 8 4 4 6 6 6 5 5 4 4 4 4 4 4 4
8 6 5 6 3 4 2 2 1 4 4 12 11 5 4 5 1 5 6 5 7 8 9 8 7 7 6 5 5 3 3 4 5 5 5 5 4 5 6 5 5 6 7 8 7 6 4 5 8 8 8 7 8 7 7 6 8 10 9 10 12 12 10 11 9 6 4 4 6 6 8 9 10 10 7 8 7 7 7 4 4 4 3 4 4 5
3 4 2 4 7 5 7 7 7 3 5 9 12 8 8 2 4 4 6 7 4 5 6 6 3 3 3 3 4 3 3 1 2 1 1 2 3 4 4 5 4 4 6 6 6 6 6 5 6 8 10 7 7 7 7 8 11 9 7 11 10 11 12 12 11 10 10 9 8 7 7 7 8 7 7 7 7 7 8 7 6 5 3 3 3 4
8 8 4 7 10 7 8 8 3 3 5 1 4 5 6 7 4 6 7 7 5 3 1 3 4 4 3 4 4 3 1 3 4 3 3 5 5 5 6 7 6 6 6 7 8 10 9 7 8 8 11 10 9 7 8 5 7 9 9 10 10 12 13 10 9 10 10 9 8 8 9 9 9 9 8 7 6 8 8 9 7 6 3 3 3 4
6 2 2 2 3 2 4 4 2 3 2 3 3 2 7 7 3 5 6 4 2 4 3 3 3 5 5 4 3 1 2 4 4 4 5 5 4 5 5 6 6 5 5 5 6 8 10 10 12 10 13 13 9 8 7 6 6 9 12 8 9 12 9 9 10 11 11 9 7 7 8 9 10 8 6 7 4 5 5 5 5 5 5 4 4 4
1 1 1 3 1 6 7 12 14 7 4 5 4 5 3 4 4 3 3 3 3 5 4 3 4 4 3 4 1 4 5 3 5 6 6 6 6 4 4 6 7 8 8 8 8 6 8 6 11 12 13 14 12 10 10 7 8 9 10 10 10 8 9 9 10 11 10 9 8 7 6 7 8 9 9 6 5 4 4 4 4 4 5 5 5 5
2 4 2 3 4 8 5 1 2 4 2 2 3 3 2 3 6 7 4 4 4 4 4 4 4 2 0 2 4 6 7 4 5 7 7 7 7 5 3 5 7 8 8 8 9 6 7 8 7 10 12 15 14 11 11 12 10 9 7 6 7 8 10 10 9 9 10 9 7 5 6 7 10 10 7 8 5 6 6 3 3 4 6 5 5 6
1 9 4 5 5 5 9 9 5 5 5 7 4 3 4 4 4 3 1 3 4 6 5 3 3 3 3 3 1 3 6 7 5 9 9 9 8 7 6 6 6 7 8 8 9 6 9 8 9 10 11 13 13 14 11 12 11 7 6 7 7 7 9 11 11 10 10 9 7 8 5 5 7 5 6 8 8 5 4 6 6 6 8 9 5 8
3 7 3 4 3 5 10 9 5 2 4 4 8 11 9 4 3 4 3 2 2 2 2 2 1 2 2 3 4 5 8 9 6 5 10 9 9 10 9 9 8 8 8 7 7 7 8 9 10 11 12 12 12 12 12 15 14 9 5 6 7 7 8 10 11 10 10 8 7 8 8 8 9 8 7 8 8 10 11 9 12 11 8 11 12 16
9 8 8 6 7 9 9 5 4 5 3 4 5 3 5 6 5 4 4 4 4 4 0 1 5 3 4 5 5 6 8 8 9 7 10 10 9 8 8 9 10 10 10 9 8 8 9 11 10 11 13 12 12 11 12 12 13 11 7 6 7 7 8 9 7 8 10 8 6 7 6 6 7 8 7 9 9 7 10 13 12 13 18 20 19 18
Wind_Direction
167 189 192 202 204 201 201 207 212 208 203 208 222 223 227 231 238 218 224 149 213 262 244 244 247 253 256 255 258 259 256 235 235 240 242 245 248 247 244 245 244 238 242 243 239 248 245 238 229 228 227 228 227 226 222 219 215 211 210 206 213 205 196 197 197 201 201 207 214 216 219 223 221 222 224 226 227 228 228 230 227 226 226 227 226 222
188 206 214 213 206 201 202 204 210 219 212 215 222 226 226 218 236 218 215 151 201 231 260 254 259 258 257 253 254 258 256 251 246 238 234 240 243 245 245 247 247 247 241 240 247 242 241 240 232 226 227 227 230 228 218 218 214 209 212 215 216 200 198 202 202 200 201 204 202 202 210 213 213 216 217 221 224 226 229 228 227 226 226 225 225 220
200 211 214 207 199 209 212 208 211 217 218 222 226 218 227 227 228 222 217 206 190 222 261 264 264 263 259 253 251 248 250 253 247 243 244 242 241 243 244 245 247 245 247 244 242 240 235 230 227 225 226 227 225 232 216 216 213 211 212 218 215 205 200 205 205 202 206 203 206 205 208 203 212 217 217 220 222 226 225 224 225 224 224 224 224 222
203 227 220 189 201 208 212 213 214 219 224 222 217 224 225 215 186 234 206 206 199 205 270 262 265 267 263 256 253 245 243 252 249 244 245 242 247 247 248 247 246 245 246 245 242 241 234 224 221 217 224 227 223 226 226 216 212 212 215 216 210 210 208 207 204 206 210 207 208 212 216 210 214 215 218 228 227 229 226 226 222 222 223 223 224 222
203 216 192 188 202 207 211 210 211 215 222 221 221 221 223 206 212 235 239 191 193 233 282 287 279 269 252 252 251 241 238 248 248 246 243 242 240 247 253 252 248 254 253 252 250 245 241 235 225 217 219 221 219 221 223 216 208 210 216 214 209 211 210 209 206 203 205 205 206 210 216 225 227 235 229 228 232 227 225 225 223 223 222 224 224 223
217 191 157 190 198 203 213 214 212 212 225 222 223 223 219 209 221 214 198 159 234 246 207 218 279 265 246 234 242 246 228 228 235 237 238 237 236 236 243 246 250 251 250 251 252 250 246 241 240 229 219 220 224 229 225 217 217 216 219 214 210 211 212 212 209 202 197 203 203 201 206 214 222 226 220 222 219 212 215 218 220 224 221 220 223 223
203 175 179 190 187 197 206 213 207 208 222 224 220 212 221 222 219 216 193 199 247 254 204 189 239 274 261 255 234 242 237 231 230 228 239 237 238 240 241 242 243 244 247 245 246 248 248 246 245 244 236 219 224 230 222 213 221 221 222 216 210 209 212 211 208 197 193 203 208 209 211 214 213 216 221 221 220 215 215 214 214 218 217 221 221 223
168 175 191 191 191 196 202 209 205 202 214 231 197 182 205 222 223 221 215 221 252 305 254 201 236 270 279 257 246 251 252 246 238 229 226 228 232 235 236 237 237 239 241 244 243 242 243 246 244 247 244 237 227 225 209 219 222 225 224 215 212 211 211 207 200 195 195 203 208 211 214 216 218 216 223 214 216 214 212 209 210 208 212 214 221 223
188 170 188 188 188 193 206 203 190 194 208 208 130 165 208 218 223 223 226 228 257 315 267 231 203 261 250 264 230 238 250 243 243 245 233 220 222 231 237 241 239 237 238 237 241 243 243 244 245 245 250 247 248 225 210 217 218 218 221 219 216 216 213 211 200 199 201 205 210 211 214 219 223 225 228 223 213 210 207 216 210 210 211 209 212 220
224 194 194 192 189 201 199 196 175 180 208 179 149 170 200 210 221 221 218 226 244 255 258 244 216 245 267 249 245 226 234 244 243 240 237 231 223 221 231 236 238 240 240 240 243 252 255 254 256 255 255 254 245 229 213 222 216 217 216 219 218 221 216 211 205 201 206 206 208 215 217 219 223 218 224 223 226 216 209 218 217 217 215 215 213 213
34 347 103 202 202 199 177 160 171 187 188 108 118 146 169 190 208 205 219 222 246 246 247 243 217 214 276 228 228 212 241 236 232 229 235 234 229 231 227 229 232 233 237 243 246 251 256 257 259 256 251 253 251 221 225 224 217 217 217 221 221 223 219 213 209 204 209 207 208 217 219 219 222 217 217 220 225 224 220 221 219 217 217 214 216 211
235 132 160 219 192 101 130 162 195 178 136 139 141 155 145 122 125 181 201 193 222 242 244 241 225 215 243 182 177 221 57 180 211 211 225 223 224 226 226 230 238 242 242 241 245 248 247 252 250 248 256 257 256 245 225 223 215 217 219 217 224 225 218 215 210 209 210 208 211 217 218 222 222 216 215 220 225 218 221 220 222 218 218 218 214 210
222 211 171 183 164 143 170 146 101 142 163 180 159 160 176 195 154 211 165 201 205 223 51 150 200 236 240 240 308 6 131 136 188 219 214 228 236 233 231 231 233 240 244 246 243 244 249 247 252 251 251 253 245 237 235 226 216 217 219 217 221 228 218 215 211 210 211 210 213 213 215 220 220 218 221 223 226 222 222 220 219 216 218 215 213 211
234 215 194 176 153 180 158 171 149 177 181 184 182 177 186 198 197 219 208 221 233 269 265 33 173 247 268 276 224 238 235 222 191 220 221 229 240 247 240 231 232 233 237 243 244 245 247 244 246 250 252 250 245 238 236 230 220 219 218 218 220 231 220 214 213 213 214 215 216 213 214 218 217 219 219 223 227 224 223 222 221 217 219 218 216 212
207 205 212 154 214 162 184 183 176 180 176 192 180 192 198 194 197 213 204 211 215 234 201 127 16 228 232 279 45 219 242 238 206 203 263 338 301 264 250 239 239 244 244 236 240 240 241 241 237 242 244 245 243 247 245 239 232 228 228 224 224 235 229 216 215 217 219 221 220 218 218 219 218 221 220 224 227 227 224 223 223 223 222 224 223 217
226 261 159 187 177 170 187 190 176 148 185 197 199 201 205 211 184 234 193 203 200 217 195 182 208 241 220 101 168 110 87 76 199 210 231 248 247 238 245 242 243 241 240 229 231 241 246 241 232 230 252 269 279 262 250 242 235 224 229 228 230 234 234 222 219 221 221 223 221 218 219 219 218 218 220 225 225 227 226 225 224 227 225 226 227 224
127 232 153 186 181 182 189 183 179 148 204 167 191 212 213 211 224 259 10 0 148 226 242 178 256 258 287 277 261 245 240 241 221 231 223 237 245 257 266 264 260 259 254 254 249 236 238 240 255 263 278 285 272 254 240 239 230 226 226 225 232 237 236 227 223 225 224 226 223 221 218 218 216 216 218 222 226 224 223 224 227 230 230 229 226 224
224 245 163 163 197 205 194 188 178 191 185 152 209 205 178 6 5 213 236 156 208 225 237 184 230 250 236 278 174 216 221 223 217 213 215 238 271 270 258 251 249 249 250 249 250 253 269 18 19 322 244 241 247 251 254 256 258 253 249 242 242 244 237 231 228 227 225 223 223 223 220 218 218 219 222 224 228 226 225 224 227 230 232 228 225 218
102 260 168 201 189 191 198 186 206 207 196 196 203 167 176 176 229 223 249 221 165 211 245 231 227 240 218 231 74 158 208 218 215 206 159 229 234 242 248 249 245 247 253 256 259 302 19 359 281 251 265 287 286 287 291 300 303 289 269 258 254 254 252 251 236 231 233 229 230 228 226 222 221 223 225 225 225 226 225 227 226 228 230 231 224 218
351 236 203 198 202 165 180 177 205 197 224 1 76 184 152 330 215 195 197 206 195 232 216 254 221 247 215 235 231 126 139 190 198 208 212 225 227 226 231 240 247 246 249 266 350 43 39 14 354 355 345 321 297 285 276 276 267 256 250 244 243 250 254 253 249 246 244 238 234 235 231 231 227 226 226 225 223 224 227 231 230 229 230 227 223 224
223 86 247 128 174 132 219 185 206 187 194 216 189 189 171 212 356 259 222 207 200 217 225 262 251 234 244 211 212 198 191 168 177 186 204 217 223 224 229 236 255 276 316 27 42 20 15 0 344 324 300 269 261 250 252 254 262 274 279 267 256 253 256 248 242 237 239 241 239 238 237 234 229 228 226 227 225 227 230 231 230 229 230 229 229 227
214 184 229 189 197 207 291 159 216 211 237 216 193 195 188 185 187 189 212 178 226 219 221 223 253 257 245 295 186 200 220 202 205 207 209 215 230 334 13 355 354 334 333 347 338 319 304 291 277 270 253 248 250 253 256 261 275 279 272 273 276 267 258 251 245 230 234 233 236 234 234 234 234 230 227 226 227 228 232 232 230 229 228 232 233 224
207 176 224 232 220 214 240 120 127 81 43 238 250 232 210 212 186 195 205 190 194 226 233 244 271 271 50 39 9 32 41 37 25 5 321 25 18 12 1 347 338 328 320 330 331 328 328 324 317 306 292 286 284 286 289 296 292 283 277 270 260 256 261 255 252 244 236 236 236 238 240 241 238 234 232 231 233 234 234 236 237 233 227 231 236 232
79 215 206 258 268 241 197 135 101 61 30 298 245 256 225 217 208 207 211 197 196 179 210 230 249 245 81 7 75 85 79 71 57 52 53 48 35 17 355 340 339 330 322 314 304 308 355 330 310 300 322 320 328 333 333 332 316 292 277 265 261 262 270 265 255 246 240 240 242 244 245 243 245 245 242 241 243 245 246 244 245 238 237 239 239 235
205 191 201 220 232 231 254 251 269 98 132 223 267 232 238 241 224 240 286 12 216 190 198 185 233 239 194 106 86 98 91 73 69 71 50 46 9 1 340 328 318 311 305 309 315 318 345 22 357 342 326 318 322 321 322 316 306 301 299 298 287 281 279 281 281 270 257 251 252 246 245 247 247 245 243 242 244 245 246 245 244 240 237 239 238 236
217 148 193 217 218 215 213 212 217 207 203 182 198 241 241 232 230 200 225 185 241 186 196 210 227 229 113 124 108 91 89 90 101 79 131 126 298 339 328 314 319 312 302 307 309 315 8 126 180 275 288 282 305 313 314 307 298 298 299 292 294 296 303 300 306 294 290 285 273 267 257 252 247 244 242 242 242 242 242 241 239 239 236 231 241 243
208 203 215 209 220 229 236 35 341 90 75 181 191 193 212 234 250 248 234 218 210 146 211 213 219 224 180 146 139 136 84 37 343 352 351 337 322 301 255 294 309 310 311 315 313 305 323 10 4 241 242 295 245 254 273 296 313 324 318 306 311 339 320 320 328 310 295 283 269 267 261 253 246 245 245 243 245 248 245 242 242 238 239 229 232 238
195 216 218 218 235 243 247 226 217 153 159 190 182 204 195 205 222 242 226 255 178 202 235 206 216 228 236 182 156 22 357 346 326 331 335 341 318 322 318 309 301 294 298 297 301 321 352 359 344 333 357 196 317 310 295 302 349 346 342 336 349 6 341 316 327 306 293 287 276 263 262 261 268 268 264 267 269 265 261 257 250 246 245 240 236 237
189 221 220 214 233 239 243 246 180 200 195 189 193 188 197 202 204 222 236 221 320 229 229 70 71 219 234 164 21 327 325 312 311 305 312 315 305 298 311 321 322 317 317 317 318 346 359 7 353 333 327 311 231 273 326 349 7 9 351 346 0 358 346 328 313 286 276 269 262 262 258 255 253 257 260 259 259 258 258 256 253 248 241 236 238 235
183 229 219 209 236 241 242 239 172 212 202 218 213 201 200 191 202 207 220 173 186 248 291 294 293 278 273 284 294 294 293 291 291 281 274 243 274 305 316 321 324 320 318 320 332 341 351 12 12 336 311 309 310 338 6 2 5 2 350 342 347 357 28 306 281 267 266 260 257 267 268 264 253 254 258 265 266 272 279 279 272 262 251 242 237 237
210 219 190 162 227 242 235 234 205 210 191 224 221 217 205 197 201 207 208 202 179 228 253 259 271 284 282 281 281 281 273 206 262 247 252 261 274 273 277 288 290 293 309 331 342 344 344 350 15 10 332 339 345 354 357 357 352 346 337 345 344 353 18 321 296 256 256 272 277 287 290 286 284 281 281 279 283 280 279 275 270 266 262 258 251 243
203 251 95 168 227 241 215 210 206 199 224 230 218 196 178 177 200 202 209 192 183 209 216 223 265 267 276 273 281 272 255 173 230 236 242 260 256 247 251 267 282 298 310 317 327 336 342 350 354 356 353 349 345 343 352 352 341 332 349 345 344 339 332 318 297 287 281 278 293 295 295 297 300 288 273 264 264 260 262 262 263 262 259 258 257 254
188 199 190 177 216 236 211 194 194 171 188 241 221 201 196 211 215 214 220 209 210 206 231 230 241 236 253 275 281 277 219 189 220 231 243 247 253 257 263 261 265 279 297 315 320 325 337 349 351 350 341 338 344 345 345 345 333 336 338 338 335 322 326 331 326 317 306 306 303 295 289 287 287 287 282 275 272 265 266 264 264 262 260 261 264 269
193 204 206 182 220 236 154 126 147 176 226 230 152 197 207 217 213 224 222 223 224 200 227 228 246 255 239 248 247 257 227 177 185 215 228 238 239 245 248 241 252 283 303 307 308 320 342 356 356 352 344 329 334 342 339 337 331 319 321 315 316 329 331 329 328 327 314 309 301 302 304 299 294 286 281 282 285 285 281 276 270 270 273 280 282 268
199 195 200 201 199 224 137 145 189 229 236 108 26 331 220 219 216 217 227 228 230 209 227 242 242 236 229 226 237 239 113 90 110 185 214 231 231 236 247 287 43 324 295 314 347 6 10 3 352 347 347 358 350 339 334 341 344 330 317 333 330 342 337 335 327 328 328 317 308 301 297 297 292 289 290 292 292 292 281 274 276 275 271 271 267 263
192 191 178 202 195 206 187 177 236 237 131 21 280 209 230 275 249 232 247 243 206 205 199 221 227 226 225 231 239 141 94 125 164 232 222 227 222 251 320 307 5 10 5 23 9 11 8 356 345 339 334 328 332 341 352 343 327 315 315 317 319 327 333 324 315 308 324 325 322 322 318 310 299 291 286 286 289 281 274 267 265 272 266 259 260 251
200 191 191 217 182 209 174 205 228 347 319 167 212 190 176 180 187 187 214 235 216 202 195 215 226 230 234 238 239 129 106 124 30 252 242 247 101 96 100 4 14 22 24 23 23 358 354 333 333 326 311 310 323 338 7 340 304 293 294 304 318 321 322 322 321 330 323 302 312 316 315 311 301 295 290 289 288 280 271 269 265 256 241 259 252 259
205 197 183 197 202 182 207 209 219 217 250 234 215 80 172 13 187 190 195 291 202 203 203 209 221 222 230 240 226 100 105 130 92 140 31 38 61 94 93 77 55 74 78 31 15 10 5 351 323 302 300 313 316 357 359 339 322 308 310 320 314 316 305 291 326 328 322 317 315 312 310 305 298 290 286 287 281 277 275 274 272 270 259 260 266 257
237 229 198 195 177 174 205 226 203 216 232 263 151 175 175 173 150 146 163 256 222 198 204 209 224 225 222 223 93 115 146 224 201 158 64 15 34 52 79 62 77 74 85 67 33 3 352 349 319 299 297 301 328 340 350 340 307 297 318 321 318 312 311 325 332 327 321 313 301 292 287 287 290 291 291 290 280 273 272 268 266 270 258 253 259 260
173 183 183 205 199 185 189 206 224 216 242 199 201 158 166 142 148 168 119 281 29 197 196 197 214 221 192 95 126 178 188 232 199 96 32 42 50 36 35 19 12 8 11 23 104 102 297 294 317 327 342 337 323 318 322 332 320 319 326 323 309 314 325 333 329 319 303 301 302 302 302 296 290 285 286 280 279 277 268 266 262 249 245 247 248 260
172 162 193 196 191 193 195 214 6 270 261 285 230 177 134 155 162 170 187 72 5 23 28 180 139 72 89 133 168 222 182 45 64 101 159 148 99 49 31 351 331 315 324 345 340 355 319 299 303 300 297 303 304 313 317 323 325 325 330 321 313 325 324 319 316 316 321 317 314 313 309 301 283 283 275 268 272 270 272 267 264 264 259 261 257 257
213 144 153 199 213 199 193 202 220 267 241 165 319 150 166 140 187 201 110 39 96 70 59 84 85 69 76 74 75 60 49 26 45 110 83 48 45 10 330 319 314 293 241 252 277 303 327 319 311 305 301 303 311 311 315 323 325 320 323 319 312 313 313 306 300 304 310 318 317 318 314 309 297 267 264 264 262 259 268 274 276 275 275 273 274 273
178 159 178 173 136 49 49 154 123 243 225 150 125 97 298 205 247 85 113 52 60 81 81 73 75 74 69 79 92 79 38 40 32 32 26 19 11 351 331 325 329 323 324 330 333 349 354 322 315 313 305 306 312 313 309 319 314 315 320 316 308 315 318 318 316 308 296 286 291 304 308 310 313 312 314 307 299 293 292 276 269 260 248 258 270 271
148 161 171 198 178 169 178 182 206 225 78 152 156 180 180 81 94 146 111 106 91 99 94 98 96 107 86 79 105 90 84 69 72 125 27 316 279 293 293 294 290 298 307 311 306 314 330 295 284 298 307 303 290 295 300 304 303 304 306 295 299 309 311 314 317 323 323 323 320 316 309 303 301 301 300 300 299 297 294 297 294 285 270 265 268 279
212 203 179 201 166 183 192 208 132 102 156 99 19 60 91 121 127 109 100 109 115 103 125 80 125 152 127 120 98 120 128 171 218 203 221 274 279 279 292 296 304 302 302 303 311 315 314 302 296 297 299 301 300 277 276 271 284 290 291 288 304 304 308 309 313 313 311 311 313 312 310 312 312 311 309 304 304 304 301 299 297 290 271 251 262 262
8 341 39 122 212 355 299 252 119 171 174 188 87 97 132 136 121 106 118 142 132 148 155 129 136 125 142 147 106 243 209 266 257 255 260 260 260 260 262 278 282 274 266 278 288 300 305 310 310 305 301 299 298 290 285 270 255 273 276 284 294 295 297 302 306 304 300 301 300 299 304 307 305 300 291 295 276 259 266 271 287 288 292 284 267 260
254 94 171 192 131 176 234 217 222 208 129 219 151 153 167 155 156 139 136 151 153 141 152 157 143 141 128 160 268 286 283 250 282 286 284 284 280 277 269 278 287 292 299 293 288 297 298 299 302 303 303 299 301 298 292 282 268 263 276 281 280 285 287 290 291 291 292 293 296 296 294 294 301 307 307 296 276 260 254 263 270 264 268 266 269 266
237 188 208 176 172 194 225 53 22 70 79 188 182 183 213 198 154 151 166 160 156 157 156 157 138 106 173 311 295 301 303 306 291 293 288 287 289 289 266 252 259 267 266 273 286 290 286 285 281 287 291 293 297 299 292 291 287 284 278 272 272 275 283 282 277 278 284 289 291 290 295 295 293 295 292 301 295 298 296 268 236 258 259 261 263 268
75 129 215 174 199 254 313 281 224 148 186 204 200 226 209 215 273 334 227 139 139 147 156 151 184 192 181 264 266 265 277 276 277 291 298 293 295 291 284 280 266 262 268 272 277 271 268 276 279 275 279 280 287 295 294 288 287 285 276 275 270 268 275 280 279 277 281 286 289 292 293 284 289 288 293 300 299 284 261 286 292 275 274 257 233 248
141 196 158 121 189 227 217 227 153 223 253 175 179 200 209 216 181 172 117 98 137 202 199 233 219 188 236 262 277 283 284 291 288 281 278 279 280 289 289 286 280 277 270 256 264 267 267 264 266 271 270 271 278 283 284 289 290 288 277 271 270 264 266 273 280 284 283 285 288 291 297 304 305 307 301 301 301 304 298 266 236 250 258 279 262 234
201 181 156 195 189 220 227 239 154 231 307 95 157 144 169 179 170 151 182 191 211 245 250 282 278 255 227 226 208 232 247 260 271 274 278 280 280 276 279 282 284 279 276 282 287 278 268 269 268 267 270 269 274 275 276 278 283 288 286 272 271 268 264 268 273 275 282 285 282 289 296 296 297 303 305 305 303 299 297 304 293 245 241 250 258 258